AIC2VN OMDB-VAAH

Flight info

Callsign AIC2VN
Flight time 2h 9m
Altitude 39000
Route IVURO M677 LALDO B505 NADSO B524 ALPOR M504 TELEM N893 VASLA VASLA1A
Aircraft B78X/H-SDE1E2E3FGHIJ2J3J4J5M1RWXY/LB1D1

Departure

Time 2026-04-26 09:09
Airport Dubai International Airport (OMDB)

Arrival

Time 2026-04-26 11:18
Airport Sardar Vallabh Patel International Airport (VAAH)
Time Latitude Longitude Altitude Speed Heading
2026-04-26 07:56 25.24965 55.36145 28 ft 0 kts 211°
2026-04-26 08:39 25.24976 55.36153 27 ft 4 kts 211°
2026-04-26 08:39 25.24999 55.36168 25 ft 5 kts 211°
2026-04-26 08:39 25.25018 55.36180 27 ft 5 kts 218°
2026-04-26 08:40 25.25034 55.36196 26 ft 5 kts 251°
2026-04-26 08:40 25.25037 55.36217 25 ft 5 kts 291°
2026-04-26 08:40 25.25026 55.36241 26 ft 5 kts 301°
2026-04-26 08:40 25.25016 55.36260 27 ft 0 kts 301°
2026-04-26 08:49 25.25017 55.36257 26 ft 1 kts 301°
2026-04-26 08:49 25.25023 55.36247 26 ft 2 kts 301°
2026-04-26 08:50 25.25032 55.36230 24 ft 3 kts 301°
2026-04-26 08:50 25.25045 55.36207 26 ft 4 kts 301°
2026-04-26 08:50 25.25062 55.36177 28 ft 5 kts 301°
2026-04-26 08:50 25.25081 55.36141 28 ft 6 kts 301°
2026-04-26 08:51 25.25129 55.36055 28 ft 7 kts 301°
2026-04-26 08:51 25.25158 55.36004 28 ft 8 kts 301°
2026-04-26 08:51 25.25188 55.35949 28 ft 9 kts 302°
2026-04-26 08:52 25.25223 55.35887 28 ft 10 kts 302°
2026-04-26 08:52 25.25262 55.35817 28 ft 11 kts 301°
2026-04-26 08:52 25.25303 55.35741 27 ft 12 kts 301°
2026-04-26 08:52 25.25348 55.35658 27 ft 13 kts 301°
2026-04-26 08:53 25.25396 55.35571 27 ft 14 kts 301°
2026-04-26 08:53 25.25448 55.35478 27 ft 15 kts 302°
2026-04-26 08:53 25.25502 55.35383 27 ft 15 kts 302°
2026-04-26 08:53 25.25559 55.35279 27 ft 16 kts 301°
2026-04-26 08:54 25.25621 55.35177 27 ft 15 kts 316°
2026-04-26 08:54 25.25698 55.35173 27 ft 8 kts 28°
2026-04-26 08:54 25.25704 55.35177 27 ft 2 kts 28°
2026-04-26 08:54 25.25719 55.35186 27 ft 3 kts 30°
2026-04-26 08:55 25.25732 55.35194 27 ft 0 kts 30°
2026-04-26 08:58 25.25733 55.35195 27 ft 1 kts 30°
2026-04-26 08:58 25.25747 55.35204 27 ft 4 kts 30°
2026-04-26 08:59 25.25777 55.35222 27 ft 6 kts 29°
2026-04-26 08:59 25.25836 55.35263 27 ft 14 kts 32°
2026-04-26 08:59 25.25936 55.35333 27 ft 21 kts 34°
2026-04-26 08:59 25.25999 55.35490 27 ft 26 kts 95°
2026-04-26 09:00 25.25913 55.35677 27 ft 29 kts 121°
2026-04-26 09:00 25.25816 55.35850 27 ft 26 kts 122°
2026-04-26 09:00 25.25729 55.36006 27 ft 22 kts 121°
2026-04-26 09:00 25.25655 55.36141 28 ft 21 kts 121°
2026-04-26 09:01 25.25578 55.36279 28 ft 21 kts 121°
2026-04-26 09:01 25.25500 55.36421 28 ft 22 kts 121°
2026-04-26 09:01 25.25419 55.36565 28 ft 22 kts 121°
2026-04-26 09:01 25.25337 55.36714 28 ft 23 kts 121°
2026-04-26 09:02 25.25256 55.36862 28 ft 23 kts 121°
2026-04-26 09:02 25.25169 55.37016 29 ft 23 kts 121°
2026-04-26 09:02 25.25087 55.37165 31 ft 23 kts 122°
2026-04-26 09:02 25.25006 55.37310 34 ft 22 kts 121°
2026-04-26 09:03 25.24930 55.37449 37 ft 21 kts 121°
2026-04-26 09:03 25.24857 55.37579 40 ft 19 kts 122°
2026-04-26 09:03 25.24794 55.37693 43 ft 14 kts 121°
2026-04-26 09:03 25.24755 55.37764 44 ft 9 kts 121°
2026-04-26 09:04 25.24722 55.37823 45 ft 9 kts 121°
2026-04-26 09:04 25.24698 55.37866 46 ft 0 kts 121°
2026-04-26 09:05 25.24698 55.37867 46 ft 1 kts 121°
2026-04-26 09:06 25.24695 55.37873 46 ft 1 kts 120°
2026-04-26 09:06 25.24688 55.37887 47 ft 2 kts 118°
2026-04-26 09:06 25.24679 55.37909 47 ft 5 kts 110°
2026-04-26 09:06 25.24686 55.37946 48 ft 4 kts 58°
2026-04-26 09:07 25.24723 55.37982 48 ft 11 kts 31°
2026-04-26 09:07 25.24803 55.38016 47 ft 10 kts
2026-04-26 09:07 25.24839 55.37987 47 ft 5 kts 298°
2026-04-26 09:07 25.24847 55.37970 46 ft 0 kts 297°
2026-04-26 09:08 25.24892 55.37883 45 ft 41 kts 301°
2026-04-26 09:08 25.25166 55.37390 34 ft 107 kts 301°
2026-04-26 09:08 25.25653 55.36508 41 ft 158 kts 301°
2026-04-26 09:09 25.26213 55.35426 435 ft 163 kts 298°
2026-04-26 09:09 25.26847 55.34345 1057 ft 173 kts 301°
2026-04-26 09:09 25.27434 55.33180 1782 ft 175 kts 301°
2026-04-26 09:09 25.28038 55.32019 2643 ft 175 kts 302°
2026-04-26 09:10 25.28663 55.30812 3245 ft 188 kts 303°
2026-04-26 09:10 25.29437 55.29635 3717 ft 193 kts 321°
2026-04-26 09:10 25.30692 55.29248 3942 ft 199 kts
2026-04-26 09:10 25.32081 55.29443 4226 ft 203 kts
2026-04-26 09:11 25.33495 55.29573 4949 ft 203 kts
2026-04-26 09:11 25.34918 55.29613 5920 ft 206 kts 358°
2026-04-26 09:11 25.36411 55.29636 6584 ft 224 kts 359°
2026-04-26 09:11 25.38034 55.29667 7072 ft 243 kts 359°
2026-04-26 09:12 25.39700 55.30076 7773 ft 254 kts 25°
2026-04-26 09:12 25.41077 55.31383 8319 ft 273 kts 48°
2026-04-26 09:12 25.42302 55.33080 8730 ft 292 kts 50°
2026-04-26 09:12 25.43573 55.34875 9338 ft 300 kts 50°
2026-04-26 09:13 25.44893 55.36681 10008 ft 304 kts 49°
2026-04-26 09:13 25.46250 55.38514 10537 ft 312 kts 49°
2026-04-26 09:13 25.47633 55.40399 11139 ft 317 kts 50°
2026-04-26 09:13 25.48970 55.42362 11760 ft 324 kts 54°
2026-04-26 09:14 25.50363 55.44379 12335 ft 339 kts 50°
2026-04-26 09:14 25.51847 55.46508 12741 ft 359 kts 60°
2026-04-26 09:14 25.52631 55.49189 13121 ft 378 kts 85°
2026-04-26 09:14 25.52451 55.52138 13482 ft 392 kts 107°
2026-04-26 09:15 25.51351 55.54905 14115 ft 396 kts 123°
2026-04-26 09:15 25.49766 55.57415 14754 ft 401 kts 129°
2026-04-26 09:15 25.48047 55.59871 15410 ft 406 kts 129°
2026-04-26 09:15 25.46418 55.62451 16050 ft 413 kts 124°
2026-04-26 09:16 25.44952 55.65204 16673 ft 418 kts 121°
2026-04-26 09:16 25.43472 55.67994 17275 ft 423 kts 121°
2026-04-26 09:16 25.42319 55.71013 17869 ft 431 kts 106°
2026-04-26 09:16 25.41573 55.74243 18416 ft 436 kts 105°
2026-04-26 09:17 25.40869 55.77522 18920 ft 441 kts 104°
2026-04-26 09:17 25.40423 55.79718 19256 ft 443 kts 104°
2026-04-26 09:17 25.39488 55.84189 19954 ft 449 kts 105°
2026-04-26 09:17 25.38754 55.87557 20462 ft 453 kts 105°
2026-04-26 09:18 25.38020 55.90959 20980 ft 457 kts 105°
2026-04-26 09:18 25.37291 55.94399 21474 ft 461 kts 105°
2026-04-26 09:18 25.36554 55.97860 21966 ft 465 kts 105°
2026-04-26 09:18 25.35803 56.01350 22439 ft 468 kts 105°
2026-04-26 09:19 25.35046 56.04863 22900 ft 472 kts 105°
2026-04-26 09:19 25.34287 56.08401 23348 ft 475 kts 105°
2026-04-26 09:19 25.33521 56.11968 23731 ft 479 kts 105°
2026-04-26 09:19 25.32792 56.15572 24099 ft 483 kts 100°
2026-04-26 09:20 25.32447 56.19282 24449 ft 487 kts 97°
2026-04-26 09:20 25.32146 56.23018 24804 ft 490 kts 96°
2026-04-26 09:20 25.31843 56.26780 25151 ft 493 kts 96°
2026-04-26 09:20 25.31526 56.30558 25489 ft 495 kts 97°
2026-04-26 09:21 25.31202 56.34353 25831 ft 498 kts 96°
2026-04-26 09:21 25.30882 56.38171 26184 ft 501 kts 96°
2026-04-26 09:21 25.30709 56.42028 26514 ft 504 kts 92°
2026-04-26 09:21 25.30601 56.45911 26865 ft 507 kts 93°
2026-04-26 09:22 25.30471 56.49818 27216 ft 510 kts 93°
2026-04-26 09:22 25.30350 56.53697 27566 ft 513 kts 92°
2026-04-26 09:22 25.30197 56.57637 27914 ft 515 kts 97°
2026-04-26 09:22 25.29485 56.61518 28282 ft 515 kts 110°
2026-04-26 09:23 25.28203 56.65210 28631 ft 516 kts 115°
2026-04-26 09:23 25.26825 56.68875 28988 ft 519 kts 115°
2026-04-26 09:23 25.25412 56.72561 29349 ft 522 kts 115°
2026-04-26 09:23 25.24000 56.76265 29721 ft 525 kts 115°
2026-04-26 09:24 25.22592 56.79999 30056 ft 528 kts 115°
2026-04-26 09:24 25.21174 56.83749 30341 ft 531 kts 115°
2026-04-26 09:24 25.19734 56.87525 30628 ft 535 kts 114°
2026-04-26 09:24 25.18287 56.91320 30901 ft 538 kts 114°
2026-04-26 09:25 25.16831 56.95147 31171 ft 542 kts 114°
2026-04-26 09:25 25.15366 56.98999 31443 ft 546 kts 114°
2026-04-26 09:25 25.13890 57.02867 31707 ft 549 kts 113°
2026-04-26 09:25 25.12402 57.06758 32021 ft 552 kts 113°
2026-04-26 09:26 25.10907 57.10670 32415 ft 552 kts 112°
2026-04-26 09:26 25.09414 57.14576 32832 ft 553 kts 112°
2026-04-26 09:26 25.07916 57.18490 33232 ft 554 kts 112°
2026-04-26 09:26 25.06413 57.22409 33643 ft 556 kts 111°
2026-04-26 09:27 25.04906 57.26336 34008 ft 557 kts 111°
2026-04-26 09:27 25.03396 57.30268 34384 ft 557 kts 111°
2026-04-26 09:27 25.01886 57.34197 34786 ft 557 kts 111°
2026-04-26 09:27 25.00375 57.38124 35165 ft 557 kts 111°
2026-04-26 09:28 24.98860 57.42059 35557 ft 557 kts 111°
2026-04-26 09:28 24.97349 57.45981 35942 ft 556 kts 111°
2026-04-26 09:28 24.95835 57.49906 36343 ft 556 kts 111°
2026-04-26 09:28 24.94323 57.53821 36724 ft 555 kts 111°
2026-04-26 09:29 24.92810 57.57734 37130 ft 554 kts 111°
2026-04-26 09:29 24.91810 57.60321 37401 ft 554 kts 111°
2026-04-26 09:29 24.89792 57.65534 37923 ft 553 kts 111°
2026-04-26 09:29 24.88794 57.68108 38188 ft 552 kts 111°
2026-04-26 09:30 24.87285 57.72001 38565 ft 552 kts 111°
2026-04-26 09:30 24.85778 57.75882 38848 ft 551 kts 111°
2026-04-26 09:30 24.84278 57.79743 38896 ft 546 kts 111°
2026-04-26 09:30 24.83014 57.83645 38933 ft 538 kts 100°
2026-04-26 09:31 24.82161 57.87674 38906 ft 541 kts 100°
2026-04-26 09:31 24.80555 57.95733 38899 ft 539 kts 99°
2026-04-26 09:32 24.78904 58.03776 38895 ft 539 kts 100°
2026-04-26 09:32 24.77268 58.11820 38891 ft 538 kts 99°
2026-04-26 09:33 24.75621 58.19857 38895 ft 539 kts 99°
2026-04-26 09:33 24.73983 58.27839 38893 ft 538 kts 99°
2026-04-26 09:34 24.72319 58.35924 38893 ft 538 kts 99°
2026-04-26 09:34 24.70673 58.43895 38896 ft 538 kts 99°
2026-04-26 09:35 24.69004 58.51961 38891 ft 537 kts 99°
2026-04-26 09:35 24.67352 58.59917 38892 ft 537 kts 99°
2026-04-26 09:36 24.65686 58.67919 38893 ft 537 kts 99°
2026-04-26 09:36 24.64017 58.75910 38893 ft 536 kts 99°
2026-04-26 09:37 24.62346 58.83895 38893 ft 536 kts 99°
2026-04-26 09:37 24.60670 58.91876 38894 ft 536 kts 99°
2026-04-26 09:38 24.58990 58.99855 38892 ft 536 kts 99°
2026-04-26 09:38 24.57307 59.07830 38888 ft 536 kts 99°
2026-04-26 09:39 24.55620 59.15795 38891 ft 535 kts 100°
2026-04-26 09:39 24.53933 59.23747 38888 ft 534 kts 100°
2026-04-26 09:40 24.52240 59.31689 38882 ft 534 kts 100°
2026-04-26 09:40 24.50546 59.39622 38883 ft 533 kts 100°
2026-04-26 09:41 24.48850 59.47542 38887 ft 533 kts 100°
2026-04-26 09:41 24.47150 59.55456 38886 ft 532 kts 100°
2026-04-26 09:42 24.45450 59.63352 38886 ft 531 kts 100°
2026-04-26 09:42 24.43746 59.71244 38881 ft 531 kts 100°
2026-04-26 09:43 24.42051 59.79075 38881 ft 531 kts 100°
2026-04-26 09:43 24.40339 59.86960 38883 ft 531 kts 100°
2026-04-26 09:44 24.38623 59.94844 38884 ft 531 kts 100°
2026-04-26 09:44 24.36905 60.02720 38888 ft 531 kts 100°
2026-04-26 09:45 24.35185 60.10583 38888 ft 530 kts 100°
2026-04-26 09:45 24.33462 60.18446 38886 ft 530 kts 100°
2026-04-26 09:46 24.31735 60.26306 38886 ft 530 kts 100°
2026-04-26 09:46 24.30004 60.34162 38885 ft 531 kts 100°
2026-04-26 09:47 24.28266 60.42033 38877 ft 531 kts 100°
2026-04-26 09:47 24.26525 60.49893 38876 ft 531 kts 100°
2026-04-26 09:48 24.24778 60.57760 38876 ft 531 kts 100°
2026-04-26 09:48 24.23028 60.65625 38874 ft 531 kts 100°
2026-04-26 09:49 24.21273 60.73485 38875 ft 531 kts 100°
2026-04-26 09:49 24.19518 60.81346 38875 ft 531 kts 100°
2026-04-26 09:50 24.17764 60.89192 38873 ft 531 kts 101°
2026-04-26 09:50 24.16002 60.97043 38881 ft 531 kts 101°
2026-04-26 09:51 24.14239 61.04889 38879 ft 530 kts 101°
2026-04-26 09:51 24.12473 61.12719 38881 ft 530 kts 101°
2026-04-26 09:52 24.10707 61.20535 38875 ft 529 kts 101°
2026-04-26 09:52 24.08066 61.32255 38814 ft 526 kts 97°
2026-04-26 09:53 24.07387 61.40182 38811 ft 524 kts 89°
2026-04-26 09:53 24.06944 61.48117 38817 ft 522 kts 90°
2026-04-26 09:54 24.06456 61.56047 38814 ft 522 kts 90°
2026-04-26 09:54 24.05987 61.63969 38813 ft 522 kts 90°
2026-04-26 09:55 24.05502 61.71885 38813 ft 521 kts 90°
2026-04-26 09:55 24.05020 61.79787 38814 ft 521 kts 90°
2026-04-26 09:56 24.04531 61.87697 38816 ft 521 kts 90°
2026-04-26 09:56 24.04040 61.95594 38817 ft 521 kts 90°
2026-04-26 09:57 24.03543 62.03502 38815 ft 520 kts 90°
2026-04-26 09:57 24.03044 62.11389 38808 ft 520 kts 90°
2026-04-26 09:58 24.02540 62.19278 38812 ft 519 kts 90°
2026-04-26 09:58 24.02034 62.27148 38809 ft 519 kts 90°
2026-04-26 09:59 24.01527 62.34959 38815 ft 518 kts 91°
2026-04-26 09:59 24.01013 62.42819 38807 ft 518 kts 91°
2026-04-26 10:00 24.00496 62.50676 38811 ft 518 kts 91°
2026-04-26 10:00 23.99976 62.58524 38802 ft 518 kts 91°
2026-04-26 10:01 23.99448 62.66381 38811 ft 518 kts 91°
2026-04-26 10:01 23.98919 62.74250 38813 ft 518 kts 91°
2026-04-26 10:02 23.98384 62.82110 38813 ft 518 kts 91°
2026-04-26 10:02 23.97846 62.89972 38812 ft 518 kts 91°
2026-04-26 10:03 23.97305 62.97818 38815 ft 518 kts 91°
2026-04-26 10:03 23.96760 63.05662 38805 ft 517 kts 92°
2026-04-26 10:04 23.96211 63.13504 38802 ft 517 kts 92°
2026-04-26 10:04 23.95659 63.21330 38811 ft 516 kts 92°
2026-04-26 10:05 23.95103 63.29159 38806 ft 516 kts 92°
2026-04-26 10:05 23.94544 63.36976 38810 ft 516 kts 92°
2026-04-26 10:06 23.93980 63.44803 38806 ft 516 kts 92°
2026-04-26 10:06 23.93412 63.52626 38813 ft 517 kts 92°
2026-04-26 10:07 23.92840 63.60457 38817 ft 517 kts 92°
2026-04-26 10:07 23.92263 63.68295 38817 ft 517 kts 92°
2026-04-26 10:08 23.91683 63.76116 38818 ft 517 kts 92°
2026-04-26 10:08 23.91103 63.83888 38805 ft 516 kts 92°
2026-04-26 10:09 23.90612 63.90433 38806 ft 516 kts 92°
2026-04-26 10:09 23.89926 63.99505 38809 ft 515 kts 92°
2026-04-26 10:10 23.89333 64.07295 38810 ft 514 kts 92°
2026-04-26 10:10 23.88736 64.15084 38812 ft 514 kts 92°
2026-04-26 10:11 23.88135 64.22863 38815 ft 514 kts 92°
2026-04-26 10:11 23.87532 64.30636 38813 ft 513 kts 93°
2026-04-26 10:12 23.86924 64.38406 38815 ft 513 kts 93°
2026-04-26 10:12 23.86313 64.46177 38816 ft 513 kts 93°
2026-04-26 10:13 23.85697 64.53941 38810 ft 513 kts 93°
2026-04-26 10:13 23.85079 64.61704 38815 ft 513 kts 93°
2026-04-26 10:14 23.84456 64.69465 38816 ft 513 kts 93°
2026-04-26 10:14 23.83830 64.77214 38817 ft 513 kts 93°
2026-04-26 10:15 23.83337 64.84985 38837 ft 511 kts 87°
2026-04-26 10:15 23.83387 64.91444 38809 ft 512 kts 88°
2026-04-26 10:16 23.83444 65.00532 38812 ft 512 kts 88°
2026-04-26 10:16 23.83480 65.07002 38815 ft 512 kts 88°
2026-04-26 10:17 23.83523 65.14790 38814 ft 513 kts 88°
2026-04-26 10:17 23.83558 65.22573 38810 ft 512 kts 88°
2026-04-26 10:18 23.83592 65.30354 38811 ft 512 kts 88°
2026-04-26 10:18 23.83620 65.38130 38809 ft 512 kts 88°
2026-04-26 10:19 23.83645 65.45902 38806 ft 512 kts 88°
2026-04-26 10:19 23.83666 65.53671 38811 ft 511 kts 88°
2026-04-26 10:20 23.83683 65.61440 38807 ft 511 kts 88°
2026-04-26 10:20 23.83696 65.69208 38807 ft 511 kts 88°
2026-04-26 10:21 23.83706 65.76970 38812 ft 511 kts 88°
2026-04-26 10:21 23.83712 65.84730 38807 ft 511 kts 89°
2026-04-26 10:22 23.83712 65.92543 38804 ft 511 kts 89°
2026-04-26 10:22 23.83710 66.00297 38806 ft 511 kts 89°
2026-04-26 10:23 23.83703 66.08062 38799 ft 511 kts 89°
2026-04-26 10:23 23.83694 66.15758 38803 ft 510 kts 89°
2026-04-26 10:24 23.83679 66.23557 38798 ft 510 kts 89°
2026-04-26 10:24 23.83662 66.31306 38800 ft 510 kts 89°
2026-04-26 10:25 23.83640 66.39058 38800 ft 510 kts 89°
2026-04-26 10:25 23.83614 66.46814 38797 ft 510 kts 89°
2026-04-26 10:26 23.83585 66.54496 38800 ft 510 kts 89°
2026-04-26 10:26 23.83552 66.62255 38803 ft 510 kts 89°
2026-04-26 10:27 23.83514 66.70001 38799 ft 510 kts 89°
2026-04-26 10:27 23.83473 66.77743 38797 ft 510 kts 89°
2026-04-26 10:28 23.83428 66.85488 38800 ft 510 kts 89°
2026-04-26 10:28 23.83380 66.93229 38803 ft 510 kts 89°
2026-04-26 10:29 23.83515 67.00958 38830 ft 507 kts 79°
2026-04-26 10:29 23.84748 67.08561 38802 ft 508 kts 78°
2026-04-26 10:30 23.86026 67.16145 38801 ft 508 kts 78°
2026-04-26 10:30 23.87268 67.23736 38799 ft 507 kts 78°
2026-04-26 10:31 23.88527 67.31317 38799 ft 507 kts 78°
2026-04-26 10:31 23.89769 67.38908 38796 ft 507 kts 78°
2026-04-26 10:32 23.91015 67.46494 38797 ft 507 kts 78°
2026-04-26 10:32 23.92254 67.54091 38797 ft 507 kts 78°
2026-04-26 10:33 23.93490 67.61682 38791 ft 507 kts 78°
2026-04-26 10:33 23.94721 67.69272 38787 ft 508 kts 78°
2026-04-26 10:34 23.95952 67.76880 38786 ft 508 kts 78°
2026-04-26 10:34 23.97179 67.84493 38783 ft 509 kts 78°
2026-04-26 10:35 23.98403 67.92107 38779 ft 509 kts 78°
2026-04-26 10:35 23.99624 67.99728 38776 ft 509 kts 78°
2026-04-26 10:36 24.00841 68.07353 38768 ft 509 kts 78°
2026-04-26 10:36 24.02054 68.14979 38766 ft 509 kts 78°
2026-04-26 10:37 24.03265 68.22611 38764 ft 509 kts 79°
2026-04-26 10:37 24.04471 68.30240 38756 ft 509 kts 79°
2026-04-26 10:38 24.05672 68.37866 38753 ft 508 kts 79°
2026-04-26 10:38 24.06868 68.45481 38750 ft 508 kts 79°
2026-04-26 10:39 24.08051 68.53042 38742 ft 507 kts 79°
2026-04-26 10:39 24.09238 68.60651 38741 ft 507 kts 79°
2026-04-26 10:40 24.10419 68.68252 38740 ft 507 kts 79°
2026-04-26 10:40 24.11282 68.75890 38758 ft 507 kts 92°
2026-04-26 10:41 24.10876 68.79732 38756 ft 510 kts 103°
2026-04-26 10:41 24.09961 68.83484 38731 ft 511 kts 105°
2026-04-26 10:41 24.08024 68.90951 38738 ft 509 kts 105°
2026-04-26 10:42 24.06085 68.98405 38736 ft 509 kts 105°
2026-04-26 10:42 24.04150 69.05855 38733 ft 509 kts 105°
2026-04-26 10:43 24.02203 69.13305 38734 ft 509 kts 105°
2026-04-26 10:43 24.00258 69.20752 38725 ft 509 kts 105°
2026-04-26 10:44 23.98315 69.28162 38724 ft 509 kts 105°
2026-04-26 10:44 23.96361 69.35609 38721 ft 509 kts 105°
2026-04-26 10:45 23.94402 69.43050 38722 ft 509 kts 105°
2026-04-26 10:45 23.92443 69.50480 38724 ft 509 kts 105°
2026-04-26 10:46 23.90481 69.57905 38722 ft 508 kts 105°
2026-04-26 10:46 23.88519 69.65315 38724 ft 507 kts 105°
2026-04-26 10:47 23.86555 69.72717 38723 ft 507 kts 105°
2026-04-26 10:47 23.84587 69.80115 38724 ft 507 kts 105°
2026-04-26 10:48 23.82617 69.87509 38730 ft 507 kts 105°
2026-04-26 10:48 23.80644 69.94898 38731 ft 507 kts 105°
2026-04-26 10:49 23.78669 70.02279 38732 ft 506 kts 105°
2026-04-26 10:49 23.76691 70.09656 38733 ft 506 kts 105°
2026-04-26 10:50 23.75043 70.15788 38739 ft 506 kts 105°
2026-04-26 10:50 23.72724 70.24401 38742 ft 506 kts 105°
2026-04-26 10:51 23.69744 70.35439 38741 ft 505 kts 105°
2026-04-26 10:52 23.67769 70.42737 38743 ft 505 kts 105°
2026-04-26 10:52 23.65779 70.50074 38747 ft 504 kts 105°
2026-04-26 10:53 23.63787 70.57406 38754 ft 504 kts 105°
2026-04-26 10:53 23.61791 70.64734 38754 ft 504 kts 105°
2026-04-26 10:54 23.59798 70.72038 38454 ft 503 kts 105°
2026-04-26 10:54 23.58799 70.75692 38130 ft 503 kts 105°
2026-04-26 10:54 23.57800 70.79346 37810 ft 504 kts 105°
2026-04-26 10:54 23.56797 70.83010 37371 ft 506 kts 105°
2026-04-26 10:55 23.55784 70.86703 36881 ft 510 kts 105°
2026-04-26 10:55 23.54766 70.90417 36368 ft 514 kts 105°
2026-04-26 10:55 23.53737 70.94160 35842 ft 518 kts 105°
2026-04-26 10:55 23.53050 70.96658 35522 ft 520 kts 105°
2026-04-26 10:56 23.51554 71.01642 35180 ft 516 kts 110°
2026-04-26 10:56 23.50268 71.05287 34904 ft 515 kts 109°
2026-04-26 10:56 23.49001 71.08917 34645 ft 512 kts 109°
2026-04-26 10:56 23.47732 71.12539 34376 ft 511 kts 109°
2026-04-26 10:57 23.46459 71.16149 34101 ft 509 kts 109°
2026-04-26 10:57 23.45193 71.19739 33856 ft 507 kts 109°
2026-04-26 10:57 23.43936 71.23313 33597 ft 505 kts 109°
2026-04-26 10:57 23.42680 71.26881 33319 ft 503 kts 109°
2026-04-26 10:58 23.41429 71.30426 33045 ft 501 kts 109°
2026-04-26 10:58 23.40183 71.33951 32803 ft 498 kts 109°
2026-04-26 10:58 23.38940 71.37469 32495 ft 497 kts 109°
2026-04-26 10:58 23.37699 71.40979 32136 ft 497 kts 109°
2026-04-26 10:59 23.36455 71.44493 31777 ft 498 kts 109°
2026-04-26 10:59 23.35209 71.48011 31396 ft 498 kts 109°
2026-04-26 10:59 23.34367 71.50386 31145 ft 498 kts 109°
2026-04-26 10:59 23.33121 71.53898 30783 ft 498 kts 109°
2026-04-26 11:00 23.31879 71.57395 30296 ft 495 kts 109°
2026-04-26 11:00 23.30247 71.61986 29646 ft 488 kts 109°
2026-04-26 11:00 23.29417 71.64323 29254 ft 492 kts 109°
2026-04-26 11:00 23.27780 71.68929 28530 ft 490 kts 109°
2026-04-26 11:01 23.26949 71.71257 28163 ft 487 kts 109°
2026-04-26 11:01 23.25748 71.74622 27646 ft 484 kts 109°
2026-04-26 11:01 23.24533 71.78030 27117 ft 480 kts 109°
2026-04-26 11:01 23.23330 71.81403 26596 ft 477 kts 109°
2026-04-26 11:02 23.22132 71.84754 26052 ft 475 kts 110°
2026-04-26 11:02 23.20922 71.88138 25539 ft 471 kts 110°
2026-04-26 11:02 23.19752 71.91405 25033 ft 469 kts 110°
2026-04-26 11:02 23.18559 71.94738 24534 ft 465 kts 110°
2026-04-26 11:03 23.17406 71.97955 24025 ft 462 kts 110°
2026-04-26 11:03 23.16241 72.01204 23501 ft 459 kts 110°
2026-04-26 11:03 23.15085 72.04423 22910 ft 456 kts 110°
2026-04-26 11:03 23.13938 72.07616 22296 ft 451 kts 110°
2026-04-26 11:04 23.12802 72.10778 21682 ft 447 kts 110°
2026-04-26 11:04 23.11684 72.13886 21096 ft 443 kts 110°
2026-04-26 11:04 23.10545 72.17052 20498 ft 439 kts 110°
2026-04-26 11:04 23.09437 72.20127 19927 ft 436 kts 110°
2026-04-26 11:05 23.08351 72.23143 19379 ft 433 kts 110°
2026-04-26 11:05 23.07263 72.26168 18826 ft 429 kts 110°
2026-04-26 11:05 23.06566 72.29296 18306 ft 425 kts 95°
2026-04-26 11:05 23.06640 72.32488 17715 ft 425 kts 81°
2026-04-26 11:06 23.07480 72.35587 17029 ft 432 kts 66°
2026-04-26 11:06 23.09010 72.38367 16360 ft 428 kts 52°
2026-04-26 11:06 23.11107 72.40640 15696 ft 425 kts 39°
2026-04-26 11:06 23.13488 72.42521 15026 ft 421 kts 34°
2026-04-26 11:07 23.15942 72.44229 14380 ft 417 kts 32°
2026-04-26 11:07 23.18410 72.45866 13748 ft 414 kts 31°
2026-04-26 11:07 23.20870 72.47467 13059 ft 410 kts 31°
2026-04-26 11:07 23.23304 72.49042 12314 ft 405 kts 31°
2026-04-26 11:08 23.25643 72.50552 12183 ft 370 kts 31°
2026-04-26 11:08 23.27732 72.51902 11988 ft 331 kts 31°
2026-04-26 11:08 23.29639 72.53133 11320 ft 314 kts 31°
2026-04-26 11:08 23.31530 72.54355 10152 ft 320 kts 31°
2026-04-26 11:09 23.33407 72.55569 9514 ft 306 kts 31°
2026-04-26 11:09 23.35192 72.56730 8735 ft 297 kts 30°
2026-04-26 11:09 23.36934 72.57909 7850 ft 291 kts 37°
2026-04-26 11:09 23.38103 72.59667 6979 ft 289 kts 73°
2026-04-26 11:10 23.38190 72.61817 6221 ft 290 kts 107°
2026-04-26 11:10 23.37439 72.63840 5770 ft 288 kts 117°
2026-04-26 11:10 23.36510 72.65758 5321 ft 286 kts 120°
2026-04-26 11:10 23.35550 72.67644 4875 ft 284 kts 120°
2026-04-26 11:11 23.34588 72.69521 4422 ft 283 kts 121°
2026-04-26 11:11 23.33651 72.71347 4007 ft 268 kts 120°
2026-04-26 11:11 23.32766 72.73073 3539 ft 256 kts 121°
2026-04-26 11:11 23.31909 72.74742 2934 ft 251 kts 120°
2026-04-26 11:12 23.31066 72.76372 2466 ft 241 kts 121°
2026-04-26 11:12 23.29994 72.77656 2078 ft 226 kts 154°
2026-04-26 11:12 23.28561 72.78070 1981 ft 203 kts 177°
2026-04-26 11:12 23.27218 72.77794 1988 ft 191 kts 199°
2026-04-26 11:13 23.25940 72.77321 1996 ft 191 kts 201°
2026-04-26 11:13 23.24681 72.76860 2017 ft 191 kts 201°
2026-04-26 11:13 23.23436 72.76410 2003 ft 191 kts 200°
2026-04-26 11:13 23.22174 72.75944 2005 ft 186 kts 201°
2026-04-26 11:14 23.20997 72.75512 1988 ft 175 kts 201°
2026-04-26 11:14 23.19826 72.75089 1989 ft 170 kts 200°
2026-04-26 11:14 23.18731 72.74700 2001 ft 170 kts 201°
2026-04-26 11:14 23.17733 72.74082 1966 ft 160 kts 221°
2026-04-26 11:15 23.16891 72.73243 1990 ft 168 kts 224°
2026-04-26 11:15 23.16071 72.72397 1989 ft 168 kts 226°
2026-04-26 11:15 23.15245 72.71512 1820 ft 162 kts 226°
2026-04-26 11:15 23.14435 72.70647 1603 ft 162 kts 227°
2026-04-26 11:16 23.13648 72.69801 1408 ft 155 kts 226°
2026-04-26 11:16 23.12871 72.68969 1215 ft 153 kts 227°
2026-04-26 11:16 23.12123 72.68165 1052 ft 156 kts 227°
2026-04-26 11:16 23.11376 72.67348 884 ft 152 kts 225°
2026-04-26 11:17 23.10581 72.66512 699 ft 153 kts 225°
2026-04-26 11:17 23.09833 72.65687 477 ft 157 kts 225°
2026-04-26 11:17 23.09101 72.64911 313 ft 148 kts 223°
2026-04-26 11:17 23.08385 72.64142 214 ft 128 kts 223°
2026-04-26 11:18 23.07923 72.63658 209 ft 56 kts 224°
2026-04-26 11:18 23.07740 72.63424 211 ft 37 kts 243°
2026-04-26 11:18 23.07681 72.63194 202 ft 12 kts 256°
2026-04-26 11:18 23.07680 72.63188 203 ft 0 kts 256°
2026-04-26 11:19 23.07679 72.63187 204 ft 1 kts 255°
2026-04-26 11:19 23.07677 72.63179 210 ft 2 kts 254°
2026-04-26 11:20 23.07670 72.63157 206 ft 4 kts 249°
2026-04-26 11:20 23.07657 72.63128 213 ft 7 kts 237°
2026-04-26 11:20 23.07582 72.63045 211 ft 17 kts 224°
2026-04-26 11:20 23.07485 72.62942 207 ft 21 kts 224°
2026-04-26 11:21 23.07469 72.62857 210 ft 7 kts 301°
2026-04-26 11:21 23.07513 72.62809 203 ft 12 kts 315°
2026-04-26 11:21 23.07521 72.62729 199 ft 11 kts 237°
2026-04-26 11:21 23.07455 72.62658 204 ft 16 kts 224°
2026-04-26 11:22 23.07366 72.62557 207 ft 19 kts 226°
2026-04-26 11:22 23.07298 72.62484 200 ft 10 kts 227°
2026-04-26 11:22 23.07291 72.62457 204 ft 1 kts 281°
2026-04-26 11:22 23.07298 72.62451 192 ft 3 kts 310°
2026-04-26 11:23 23.07318 72.62426 205 ft 1 kts 313°
2026-04-26 11:23 23.07328 72.62415 203 ft 0 kts 314°
2026-04-26 11:23 23.07326 72.62417 204 ft 0 kts 314°
2026-04-26 11:23 23.07326 72.62418 204 ft 1 kts 314°
2026-04-26 11:24 23.07326 72.62417 203 ft 0 kts 314°